This is the latest recevied weather packets stored in our database for station/object EI8EPB-1. If no packets are shown the sender has not sent any weather packets the latest 10 day(s).
| Time | Temp. | Humidity | Pressure | Rain* | Wind** | Luminosity | Snow |
|---|---|---|---|---|---|---|---|
| 1777644004 | 17.78° C | 73% | 1016.5 hPa | 0 mm | - | - | - |
| 1777643704 | 17.22° C | 75% | 1016.6 hPa | 0 mm | - | - | - |
| 1777643403 | 16.67° C | 77% | 1016.7 hPa | 0 mm | - | - | - |
| 1777643104 | 16.67° C | 77% | 1016.7 hPa | 0 mm | - | - | - |
| 1777642804 | 16.67° C | 77% | 1016.7 hPa | 0 mm | - | - | - |
| 1777642504 | 16.11° C | 78% | 1016.8 hPa | 0 mm | - | - | - |
| 1777642203 | 15.56° C | 78% | 1016.8 hPa | 0 mm | - | - | - |
| 1777641904 | 15.56° C | 78% | 1016.8 hPa | 0 mm | - | - | - |
| 1777641604 | 15.56° C | 76% | 1016.8 hPa | 0 mm | - | - | - |
| 1777641303 | 16.11° C | 77% | 1016.7 hPa | 0 mm | - | - | - |
| 1777641004 | 16.11° C | 77% | 1016.8 hPa | 0 mm | - | - | - |
| 1777640703 | 16.67° C | 74% | 1016.7 hPa | 0 mm | - | - | - |
| 1777640404 | 16.67° C | 78% | 1016.7 hPa | 0 mm | - | - | - |
| 1777640104 | 16.11° C | 78% | 1016.7 hPa | 0 mm | - | - | - |
| 1777639803 | 16.67° C | 76% | 1016.7 hPa | 0 mm | - | - | - |
| 1777639504 | 16.67° C | 76% | 1016.7 hPa | 0 mm | - | - | - |
| 1777639203 | 16.67° C | 76% | 1016.7 hPa | 0 mm | - | - | - |
| 1777638904 | 16.11° C | 77% | 1016.8 hPa | 0 mm | - | - | - |
| 1777638603 | 16.67° C | 75% | 1016.8 hPa | 0 mm | - | - | - |
| 1777638303 | 16.67° C | 76% | 1016.7 hPa | 0 mm | - | - | - |
| 1777638004 | 16.67° C | 76% | 1016.7 hPa | 0 mm | - | - | - |
| 1777637703 | 16.67° C | 74% | 1016.6 hPa | 0 mm | - | - | - |
| 1777637404 | 17.22° C | 75% | 1016.6 hPa | 0 mm | - | - | - |
| 1777637104 | 16.67° C | 75% | 1016.6 hPa | 0 mm | - | - | - |
| 1777636804 | 16.67° C | 75% | 1016.7 hPa | 0 mm | - | - | - |
* Rain latest hour (hover to see other rain measurements)
** Current wind speed in m/s (hover to see current wind gust speed)